Weather History for Crestview, FL

Change the Weather History Date:

Wednesday, April 3, 2013

  Actual Average Record
Temperature  
Mean Temperature 57 °F -  
Max Temperature 61 °F - - ()
Min Temperature 53 °F - - ()
Degree Days  
Heating Degree Days 8    
Growing Degree Days 7 (Base 50)    
Moisture  
Dew Point 55 °F    
Average Humidity 90    
Maximum Humidity 100    
Minimum Humidity 72    
Precipitation  
Precipitation 0.51 in - - ()
Sea Level Pressure  
Sea Level Pressure 30.00 in    
Wind  
Wind Speed 5 mph (NE)    
Max Wind Speed 17 mph    
Max Gust Speed 25 mph    
Visibility 9 miles    
Events Rain , Thunderstorm    
T = Trace of Precipitation, MM = Missing Value Source: NWS Daily Summary

Daily Weather History Graph

Daily Weather History Graph

Search for Another Location

Airport:

Trip Planner

Search our weather history database for the weather conditions in past years. The results will help you decide how hot, cold, wet, or windy it might be!

Date:

Astronomy

Apr. 03, 2013 Rise Set
Actual Time 6:32 AM CDT 7:06 PM CDT
Civil Twilight 6:08 AM CDT 7:30 PM CDT
Nautical Twilight 5:39 AM CDT 7:59 PM CDT
Astronomical Twilight 5:10 AM CDT 8:28 PM CDT
Moon 1:46 AM CDT (4/3) 12:43 PM CDT (4/3)
Length of Visible Light 13h 22m
Length of Day
12h 34m
Last Quarter, 44% of the Moon is Illuminated
Apr 3
Last Quarter
Apr 10
New
Apr 18
First Quarter
Apr 25
Full
May 2
Last Quarter

Hourly Weather History & Observations

Time (CDT) Temp. Dew Point Humidity Pressure Visibility Wind Dir Wind Speed Gust Speed Precip Events Conditions
12:58 AM 55.9 °F 51.8 °F 86% 30.04 in 10.0 mi Calm Calm - N/A   Scattered Clouds
1:58 AM 55.9 °F 52.2 °F 87% 30.02 in 10.0 mi NNE 2.3 mph - N/A   Overcast
2:58 AM 57.2 °F 52.7 °F 85% 30.00 in 10.0 mi NE 3.5 mph - N/A   Mostly Cloudy
3:58 AM 57.6 °F 53.4 °F 86% 30.00 in 10.0 mi SSE 2.3 mph - N/A   Mostly Cloudy
4:58 AM 57.6 °F 52.9 °F 84% 29.99 in 10.0 mi NE 4.6 mph - N/A   Overcast
5:58 AM 57.2 °F 52.9 °F 85% 30.00 in 10.0 mi NNE 3.5 mph - N/A   Scattered Clouds
6:58 AM 58.6 °F 51.6 °F 77% 30.02 in 10.0 mi NE 4.6 mph - N/A   Clear
7:58 AM 59.0 °F 50.0 °F 72% 30.05 in 10.0 mi Variable 4.6 mph - N/A   Partly Cloudy
8:16 AM 59.0 °F 50.0 °F 72% 30.06 in 10.0 mi NNW 4.6 mph - N/A   Light Drizzle
8:55 AM 57.4 °F 52.9 °F 85% 30.08 in 10.0 mi North 3.5 mph - 0.00 in Rain Light Rain
9:55 AM 56.1 °F 52.0 °F 86% 30.06 in 7.0 mi NNE 6.9 mph - 0.01 in Rain Light Rain
10:55 AM 54.9 °F 52.7 °F 92% 30.07 in 6.0 mi NE 6.9 mph - 0.05 in Rain Light Rain
11:16 AM 55.4 °F 53.6 °F 94% 30.08 in 6.0 mi NE 5.8 mph - N/A Rain Rain
11:55 AM 54.1 °F 53.1 °F 96% 30.09 in 5.0 mi NNE 8.1 mph - 0.13 in Rain Light Rain
12:25 PM 53.6 °F 53.6 °F 100% 30.08 in 6.0 mi NE 5.8 mph - N/A Rain , Thunderstorm Light Thunderstorms and Rain
12:55 PM 53.8 °F 52.7 °F 96% 30.08 in 6.0 mi NNE 6.9 mph - 0.10 in Rain , Thunderstorm Light Thunderstorms and Rain
1:17 PM 53.6 °F 53.6 °F 100% 30.06 in 6.0 mi NNE 5.8 mph - N/A Rain Light Rain
1:33 PM 53.6 °F 53.6 °F 100% 30.06 in 5.0 mi NE 8.1 mph - N/A Rain , Thunderstorm Light Thunderstorms and Rain
1:55 PM 53.8 °F 53.2 °F 98% 30.06 in 7.0 mi NNE 6.9 mph - 0.11 in Rain Light Rain
2:55 PM 54.1 °F 54.0 °F 99% 30.04 in 5.0 mi East 8.1 mph - 0.09 in Rain Light Rain
3:17 PM 55.4 °F 53.6 °F 94% 29.98 in 5.0 mi East 12.7 mph - N/A Rain Light Rain
3:55 PM 57.0 °F 56.5 °F 98% 29.86 in 10.0 mi East 17.3 mph 25.3 mph 0.02 in   Overcast
4:14 PM 57.2 °F 57.2 °F 100% 29.85 in 10.0 mi East 11.5 mph 23.0 mph N/A   Overcast
4:55 PM 59.7 °F 56.8 °F 90% 29.83 in 10.0 mi East 11.5 mph 20.7 mph N/A   Overcast
5:55 PM 61.7 °F 57.2 °F 85% 29.84 in 10.0 mi ENE 9.2 mph - N/A   Mostly Cloudy
6:55 PM 61.5 °F 57.4 °F 86% 29.89 in 10.0 mi NNE 6.9 mph - N/A   Overcast
7:55 PM 60.4 °F 57.6 °F 90% 29.94 in 10.0 mi NNE 5.8 mph - N/A   Overcast
8:55 PM 59.7 °F 57.4 °F 92% 29.97 in 10.0 mi NNE 6.9 mph - N/A   Overcast
9:55 PM 59.7 °F 57.7 °F 93% 29.97 in 10.0 mi NE 9.2 mph - N/A   Overcast
10:38 PM 60.8 °F 59.0 °F 94% 29.97 in 10.0 mi NE 8.1 mph - N/A   Overcast
10:54 PM 60.8 °F 59.0 °F 94% 29.97 in 10.0 mi Variable 2.3 mph - N/A   Overcast
10:55 PM 60.1 °F 58.6 °F 95% 29.98 in 10.0 mi NE 2.3 mph - N/A   Overcast
11:55 PM 59.9 °F 58.5 °F 95% 29.96 in 10.0 mi NNE 5.8 mph - N/A   Overcast